This demonstration page uses our WeatherBlox Daily Observations layout. Learn more.

Hourly Observations for February 12, 2019

Temp ( °F °C ) Dew Point ( °F °C ) Humidity (%) Winds ( mph kmh ) Pressure ( in mb ) Visibility ( mi km ) Precip ( " mm )
12:17 am 00:17 Cloudy with Mist and Fog 26 -3.3 22 -5.6 84 84 NW 10 17 30.01 1016 6 9.65604 0 0
12:54 am 00:54 Cloudy 26 -3.3 23 -5 88 88 NW 9 15 29.97 1015 7 11.26538 0 0
1:54 am 01:54 Cloudy 26 -3.3 23 -5 88 88 NW 10 17 29.97 1015 8 12.87472 0 0
2:02 am 02:02 Cloudy 26 -3.3 23 -5 88 88 NW 9 15 30.01 1016 8 12.87472 0 0
2:54 am 02:54 Cloudy 26 -3.3 22 -5.6 84 84 NW 13 20 29.98 1015 9 14.48406 0 0
3:54 am 03:54 Cloudy 28 -2.2 23 -5 81 81 NNW 15 24 29.98 1015 10 16.0934 0 0
4:25 am 04:25 Cloudy 28 -2.2 23 -5 81 81 NW 14 22 30.02 1017 10 16.0934 0 0
4:54 am 04:54 Cloudy 28 -2.2 23 -5 81 81 NW 12 19 29.99 1016 10 16.0934 0 0
5:18 am 05:18 Mostly Cloudy 27 -2.8 21 -6.1 78 78 NW 15 24 30.04 1017 10 16.0934 0 0
5:54 am 05:54 Mostly Cloudy 25 -3.9 19 -7.2 78 78 NW 18 30 30.03 1017 10 16.0934 0 0
6:52 am 06:52 Partly Cloudy 21 -6 18 -8 86 86 NW 16 26 30.12 1020 10 16.0934 0 0
6:54 am 06:54 Mostly Clear 22 -5.6 16 -8.9 78 78 NW 14 22 30.08 1019 10 16.0934 0 0
7:54 am 07:54 Sunny 18 -7.8 11 -11.7 74 74 NW 14 22 30.12 1020 10 16.0934 0 0
8:54 am 08:54 Sunny 18 -7.8 8 -13.3 65 65 NW 16 26 30.16 1021 10 16.0934 0 0
9:54 am 09:54 Sunny 20 -6.7 10 -12.2 65 65 NW 14 22 30.17 1022 10 16.0934 0 0
10:54 am 10:54 Sunny 22 -5.6 12 -11.1 66 66 NW 15 24 30.17 1022 10 16.0934 0 0
11:54 am 11:54 Sunny 25 -3.9 16 -8.9 69 69 WNW 14 22 30.18 1022 10 16.0934 0 0
12:54 pm 12:54 Sunny 29 -1.7 18 -7.8 63 63 WNW 18 30 30.16 1021 10 16.0934 0 0
1:54 pm 13:54 Sunny 32 0 20 -6.7 61 61 NW 15 24 30.16 1021 10 16.0934 0 0
2:54 pm 14:54 Sunny 33 0.6 21 -6.1 61 61 NNW 15 24 30.16 1021 10 16.0934 0 0
3:54 pm 15:54 Mostly Sunny 34 1.1 21 -6.1 59 59 WNW 17 28 30.16 1021 10 16.0934 0 0
4:54 pm 16:54 Sunny 33 0.6 21 -6.1 61 61 undefined N/A 30.17 1022 10 16.0934 0 0
5:54 pm 17:54 Sunny 31 -0.6 22 -5.6 69 69 WNW 7 11 30.18 1022 10 16.0934 0 0
6:54 pm 18:54 Clear 30 -1.1 21 -6.1 69 69 NW 7 11 30.19 1023 10 16.0934 0 0
7:54 pm 19:54 Clear 27 -2.8 20 -6.7 75 75 NW 5 7 30.2 1023 10 16.0934 0 0
8:54 pm 20:54 Clear 21 -6.1 17 -8.3 85 85 WSW 3 6 30.22 1023 10 16.0934 0 0
9:54 pm 21:54 Clear 17 -8.3 13 -10.6 84 84 N 3 6 30.23 1024 10 16.0934 0 0
10:54 pm 22:54 Clear 20 -6.7 17 -8.3 89 89 Calm 30.22 1024 10 16.0934 0 0
11:54 pm 23:54 Clear 17 -8.3 14 -10 88 88 NE 3 6 30.22 1023 10 16.0934 0 0

Powered by AerisWeather